TimeEDT,TemperatureF,Dew PointF,Humidity,Sea Level PressureIn,VisibilityMPH,Wind Direction,Wind SpeedMPH,Gust SpeedMPH,PrecipitationIn,Events,Conditions,WindDirDegrees,DateUTC
12:53 AM,50.0,46.9,89,30.15,10.0,Calm,Calm,-,N/A,,Mostly Cloudy,0,2013-10-11 04:53:00
1:53 AM,51.1,48.0,89,30.14,10.0,South,5.8,-,N/A,,Scattered Clouds,170,2013-10-11 05:53:00
2:53 AM,52.0,48.0,86,30.13,10.0,SSW,4.6,-,N/A,,Mostly Cloudy,200,2013-10-11 06:53:00
3:53 AM,52.0,48.9,89,30.13,10.0,SSW,3.5,-,N/A,,Overcast,210,2013-10-11 07:53:00
4:53 AM,52.0,48.9,89,30.13,10.0,WSW,3.5,-,N/A,,Overcast,250,2013-10-11 08:53:00
5:53 AM,52.0,48.9,89,30.14,10.0,Calm,Calm,-,N/A,,Overcast,0,2013-10-11 09:53:00
6:53 AM,52.0,50.0,93,30.17,10.0,Calm,Calm,-,0.00,,Mostly Cloudy,0,2013-10-11 10:53:00
7:53 AM,52.0,51.1,97,30.17,10.0,Calm,Calm,-,0.00,Rain,Light Rain,0,2013-10-11 11:53:00
8:53 AM,53.1,51.1,93,30.17,10.0,Calm,Calm,-,0.01,,Mostly Cloudy,0,2013-10-11 12:53:00
9:53 AM,54.0,52.0,93,30.17,10.0,South,3.5,-,N/A,,Partly Cloudy,170,2013-10-11 13:53:00
10:53 AM,55.9,52.0,87,30.17,10.0,Calm,Calm,-,N/A,,Clear,0,2013-10-11 14:53:00
11:53 AM,59.0,46.9,64,30.17,10.0,Calm,Calm,-,N/A,,Mostly Cloudy,0,2013-10-11 15:53:00
12:53 PM,62.1,44.1,52,30.15,10.0,Calm,Calm,-,N/A,,Scattered Clouds,0,2013-10-11 16:53:00
1:53 PM,63.0,42.1,46,30.14,10.0,Calm,Calm,-,N/A,,Clear,0,2013-10-11 17:53:00
2:53 PM,64.0,43.0,46,30.13,10.0,Variable,3.5,-,N/A,,Overcast,0,2013-10-11 18:53:00
3:53 PM,64.9,39.0,39,30.12,10.0,Variable,3.5,-,N/A,,Partly Cloudy,0,2013-10-11 19:53:00
4:53 PM,66.0,42.1,42,30.12,10.0,Variable,3.5,-,N/A,,Clear,0,2013-10-11 20:53:00
5:53 PM,64.9,46.9,52,30.13,10.0,Calm,Calm,-,N/A,,Partly Cloudy,0,2013-10-11 21:53:00
6:53 PM,57.0,51.1,81,30.14,10.0,Calm,Calm,-,N/A,,Clear,0,2013-10-11 22:53:00
7:53 PM,55.9,50.0,80,30.14,10.0,Calm,Calm,-,N/A,,Clear,0,2013-10-11 23:53:00
8:53 PM,48.9,46.0,90,30.15,10.0,Calm,Calm,-,N/A,,Clear,0,2013-10-12 00:53:00
9:53 PM,46.0,45.0,96,30.16,10.0,Calm,Calm,-,N/A,,Clear,0,2013-10-12 01:53:00
10:53 PM,45.0,44.1,97,30.16,10.0,Calm,Calm,-,N/A,,Clear,0,2013-10-12 02:53:00
11:53 PM,45.0,44.1,97,30.15,10.0,Calm,Calm,-,N/A,,Clear,0,2013-10-12 03:53:00